Terminal Aerodrome Forecast
Issued by NWS Brownsville, TX

Home | Current Version | Previous Version | Text Only | Print | Product List | Glossary On
Versions: 1 2 3 4 5 6 7 8 9 10 11
000
FTUS44 KBRO 281100
TAFMFE
TAF
KMFE 281131Z 2812/2912 33012G20KT P6SM BKN012 OVC020
     FM282100 30010KT P6SM BKN025
     FM290000 34007KT P6SM SCT025
     FM290300 34004KT P6SM SKC=

USA.gov is the U.S. government's official web portal to all federal, state and local government web resources and services.